Regional Weather Roundup
Issued by NWS Sioux Falls, SD

Home | Current Version | Previous Version | Text Only | Print | Product List | Glossary On
Versions: 1 2 3 4 5 6 7 8 9 10 11 12 13 14 15 16 17 18 19 20 21 22 23 24 25 26 27 28 29 30 31 32 33 34 35 36 37 38 39 40 41 42 43 44 45 46 47 48 49 50
000
ASUS43 KFSD 260710
RWRFSD

WEATHER ROUNDUP FOR SE SOUTH DAKOTA/SW MINNESOTA/NW IOWA
NATIONAL WEATHER SERVICE SIOUX FALLS SD
200 AM CDT SUN MAR 26 2017

NOTE: "FAIR" INDICATES FEW OR NO CLOUDS BELOW 12,000 FEET WITH NO
SIGNIFICANT WEATHER AND OR OBSTRUCTIONS TO VISIBILITY.


SDZ038>040-050-052>070-260800-
SOUTHEAST SOUTH DAKOTA

CITY           SKY/WX    TMP DP  RH WIND       PRES   REMARKS
BROOKINGS      CLOUDY    36  35  96 SE5       29.95  FOG
CHAMBERLAIN    CLOUDY    41  41  99 E6        29.92S
HURON          CLOUDY    39  38  96 SE8       29.95S
MADISON        CLOUDY    36  36 100 E5        29.94F FOG
MITCHELL       CLOUDY    39  39 100 SE6       29.95S FOG
SIOUX FALLS    CLOUDY    39  37  92 E7        29.95F
WINNER         CLOUDY    41  38  89 S8        29.90S
YANKTON        CLOUDY    37  36  93 E5        29.94F
$$

MNZ071-072-080-081-089-090-097-098-260800-
SOUTHWEST MINNESOTA

CITY           SKY/WX    TMP DP  RH WIND       PRES   REMARKS
FAIRMONT       CLOUDY    37  36  96 NE8       29.94F FOG
JACKSON        DRIZZLE   36  36 100 NE8       29.93F
LUVERNE        CLOUDY    36  34  93 E5        29.95F
MARSHALL       CLOUDY    37  35  92 E5        29.97F
MONTEVIDEO     CLOUDY    37  37 100 SE3       30.00S
PIPESTONE      FOG       36  34  93 SE8       29.94S VSB 3/4
REDWOOD FALLS  CLOUDY    39  34  82 E8        29.96F
TRACY          CLOUDY    37  37  97 E7        29.96F FOG
WINDOM         DRIZZLE   36  36 100 NE7       29.94F
WORTHINGTON    CLOUDY    35  35 100 NE7       29.94F FOG     WCI  29
$$

IAZ001>003-012>014-020>022-031-032-NEZ013-014-SDZ071-260800-
NORTHWEST IOWA

CITY           SKY/WX    TMP DP  RH WIND       PRES   REMARKS
CHEROKEE       CLOUDY    37  37 100 N5        29.92S FOG
ESTHERVILLE    CLOUDY    36  36 100 NE9       29.92F FOG
LE MARS        CLOUDY    37  37 100 NE6       29.94F FOG
ORANGE CITY    CLOUDY    37  37 100 CALM      29.93F FOG
SHELDON        CLOUDY    37  37 100 NE6       29.92S FOG
SIOUX CITY     CLOUDY    39  38  96 N7        29.93F
SPENCER        CLOUDY    37  37 100 NE9       29.92F FOG
STORM LAKE     FOG       37  37 100 NE9       29.90F VSB 1
$$

ABBREVIATIONS USED IN REMARKS
   TC - TEMPERATURE IN CELSIUS
  WCI - WIND CHILL INDEX
   HX - HEAT INDEX
  VSB - VISIBILITY




USA.gov is the U.S. government's official web portal to all federal, state and local government web resources and services.